This demonstration page uses our WeatherBlox Daily Observations layout. Learn more.

Left ArrowRight Arrow

38.89511, -77.03637

Hourly Observations for July 14, 2015

Temp ( °F °C ) Dew Point ( °F °C ) Humidity (%) Winds ( mph kmh ) Pressure ( in mb ) Visibility ( mi km ) Precip ( " mm )
12:52 am 00:52 Cloudy 77 25 72 22.2 85 85 N N/A 29.75 1007 10 16 N/A
1:00 am 01:00 Cloudy 77 25 72 22 83 83 N N/A 29.74 1007 10 16 N/A
1:37 am 01:37 Cloudy 77 25 72 22 83 83 S 5 7 29.74 1007 10 16 N/A
1:44 am 01:44 Cloudy 77 25 72 22 83 83 S 6 9 29.74 1007 10 16 N/A
1:52 am 01:52 Cloudy 77 25 72 22.2 85 85 S 7 11 29.72 1007 10 16 N/A
2:52 am 02:52 Cloudy 77 25 72 22.2 85 85 N N/A 29.71 1006 10 16 N/A
3:29 am 03:29 Cloudy 77 25 72 22 83 83 N N/A 29.68 1005 10 16 N/A
3:52 am 03:52 Cloudy 77 25 72 22.2 85 85 N N/A 29.68 1005 10 16 N/A
4:52 am 04:52 Cloudy 77 25 72 22.2 85 85 SW 5 7 29.67 1005 10 16 N/A
5:52 am 05:52 Cloudy with Haze 77 25 72 22.2 85 85 SSW 3 6 29.68 1005 6 10 N/A
6:31 am 06:31 Cloudy 77 25 72 22 83 83 SW 3 6 29.68 1005 7 11 N/A
6:52 am 06:52 Cloudy 77 25 72 22.2 85 85 SW 5 7 29.67 1005 8 13 N/A
7:00 am 07:00 Cloudy 77 25 72 22 83 83 WSW 5 7 29.68 1005 8 13 N/A
7:52 am 07:52 Mostly Cloudy 78 25.6 71 21.7 79 79 N N/A 29.67 1005 9 14 N/A
8:43 am 08:43 Mostly Cloudy 81 27 72 22 74 74 N N/A 29.68 1005 10 16 N/A
8:52 am 08:52 Mostly Cloudy 81 27.2 73 22.8 77 77 S 6 9 29.67 1005 10 16 N/A
9:38 am 09:38 Cloudy 81 27 73 23 79 79 S 8 13 29.68 1005 10 16 N/A
9:52 am 09:52 Cloudy 80 26.7 72 22.2 76 76 SSE 8 13 29.66 1005 10 16 N/A
10:52 am 10:52 Cloudy 83 28.3 73 22.8 72 72 S 9 15 29.65 1004 10 16 N/A
11:52 am 11:52 Cloudy 83 28.3 72 22.2 70 70 S 9 15 29.65 1004 10 16 N/A
12:52 pm 12:52 Cloudy 85 29.4 71 21.7 63 63 SSW 12 19 29.65 1004 10 16 N/A
1:52 pm 13:52 Mostly Cloudy 85 29.4 73 22.8 68 68 SSE 10 17 29.64 1004 10 16 N/A
2:52 pm 14:52 Mostly Cloudy 86 30 71 21.7 61 61 SSE 8 13 29.60 1002 10 16 N/A
3:52 pm 15:52 Partly Cloudy 87 30.6 72 22.2 61 61 SSE 10 17 29.59 1002 10 16 N/A
4:52 pm 16:52 Mostly Cloudy 88 31.1 72 22.2 59 59 S 12 19 29.57 1002 10 16 N/A
5:52 pm 17:52 Mostly Cloudy 87 30.6 73 22.8 63 63 S 14 22 29.55 1001 10 16 N/A
6:52 pm 18:52 Mostly Cloudy 86 30 71 21.7 61 61 SSW 10 17 29.55 1001 10 16 N/A
7:52 pm 19:52 Mostly Cloudy 85 29.4 71 21.7 63 63 S 9 15 29.55 1001 10 16 N/A
8:52 pm 20:52 Mostly Cloudy 84 28.9 71 21.7 65 65 S 8 13 29.55 1001 10 16 N/A
9:52 pm 21:52 Mostly Cloudy 84 28.9 73 22.8 70 70 S 9 15 29.55 1001 10 16 N/A
10:52 pm 22:52 Mostly Cloudy 83 28.3 73 22.8 72 72 S 7 11 29.55 1001 10 16 N/A
11:52 pm 23:52 Mostly Cloudy 83 28.3 73 22.8 72 72 S 9 15 29.55 1001 10 16 N/A

Powered by AerisWeather